TITAN 3C TRANSTAGE R/B, 1863

Orbit data source: Space-Track

TITAN 3C TRANSTAGE R/B, 1863 is space debris in HEO originally from a launch on Tue, 21 Dec 1965 UTC launched from the Air Force Eastern Test Range (AFETR). Debris objects in space refer to the collection of defunct objects orbiting the Earth. Examples of debris include non-operational satellites, rocket bodies, and fragments generated from explosions, collisions, or faulty payload assembly.

Loading next visibility...
Identifier
1863, 1965-108A
Orbit
HEO
Country
Flag of USUS
Related business
Manufacturer
Martin Marietta
Mission
Spacecraft
Bus & Motor
TRANSTAGE, Unknown motor
Mass
~2,050 kg wet, 1,950 kg dry
Launch date (UTC)
1965-12-21 (60 years ago)
Launch vehicle
Unknown
Launch site
Air Force Eastern Test Range (AFETR)
Object type
Payload
Rocket body
Debris
Shape & HBR
Unknown
Radar Cross Section
Large (>1 m²)

Expand to show TLE details & history
Last TLE update: 4 hours ago

TLE from 4 hours ago
0 TITAN 3C TRANSTAGE R/B
1  1863U 65108A   26036.78114755  .00006701  00000-0  25428-2 0  9990
2  1863  26.8823 316.7600 6006519 315.0096   9.8080  3.99597070363100
Epoch: 2026-02-05T18:44Z
TLE epoch observation values (Epoch: 2026-02-05T18:44:51.148Z)
Latitude
0.00002°
Longitude
-100.37174°
Altitude
1,147.997 km
Speed
9.064 km/s
True Right ascension
21h 07m 04s
True Declination
0° 00' 00"
Sunlit
Object was in daylight at epoch
Visualization orbit readout
Latitude
Unknown
Longitude
Unknown
Altitude
Unknown
Speed
Unknown
Apparent Right ascension
Unknown
Apparent Declination
Unknown
Sunlit
N/A
Visualization observer readout
Local Sidereal Time
00:47:27
Azimuth
Unknown
Elevation
Unknown
Doppler factor
Unknown
Orbital elements
Apogee altitude
20,477.968 km
Perigee altitude
322.217 km
Semi-major axis
16,778.23 km
Eccentricity
0.60065
Inclination
26.8823°
RAAN
316.76°
Arg. of periapsis
315.0096°
True anomaly
45.3384°
Mean anomaly
9.808°
Eccentric anomaly
23.56872°
Mean motion
0.99867 °/min
Orbital period
360.48 mins
BSTAR
0.0025428
Loading maneuver chart data...
Computing Atmospheric mass density...

Documentation

Showing up to 5 results
|